Ithaca, NY

10:01 AM EDT on July 25, 2017 (GMT -0400)
Tompkins County

Weather History for KITH - January, 2013

Change the Weather History Date:

Sunday, January 6, 2013

  Actual Average Record
Temperature  
Mean Temperature 32 °F -  
Max Temperature 36 °F 30 °F 59 °F (1998)
Min Temperature 29 °F 14 °F -11 °F (1976)
Degree Days  
Heating Degree Days 32    
Moisture  
Dew Point 25 °F    
Average Humidity 76    
Maximum Humidity 92    
Minimum Humidity 67    
Precipitation  
Precipitation 0.00 in - - ()
Sea Level Pressure  
Sea Level Pressure 30.02 in    
Wind  
Wind Speed 9 mph (SSW)    
Max Wind Speed 14 mph    
Max Gust Speed -    
Visibility 9 miles    
Events Rain , Snow    
Averages and records for this station are not official NWS values.
T = Trace of Precipitation, MM = Missing Value Source: NWS Daily Summary

Daily Weather History Graph

Daily Weather History Graph

Search for Another Location

Airport or City:

Trip Planner

Search our weather history database for the weather conditions in past years. The results will help you decide how hot, cold, wet, or windy it might be!

Date:

Astronomy

Jan. 06, 2013 Rise Set
Actual Time 7:35 AM EST 4:48 PM EST
Civil Twilight 7:03 AM EST 5:20 PM EST
Nautical Twilight 6:28 AM EST 5:55 PM EST
Astronomical Twilight 5:54 AM EST 6:29 PM EST
Moon 1:44 AM EST (1/6) 12:16 PM EST (1/6)
Length of Visible Light 10h 16m
Length of Day
9h 13m
Waning Crescent, 33% of the Moon is Illuminated
Jan 6
Waning Crescent
Jan 11
New
Jan 18
First Quarter
Jan 26
Full
Feb 3
Last Quarter

Hourly Weather History & Observations

Time (EST) Temp. Windchill Dew Point Humidity Pressure Visibility Wind Dir Wind Speed Gust Speed Precip Events Conditions
12:56 AM 29.1 °F 18.4 °F 20.1 °F 69% 30.12 in 10.0 mi SSW 13.8 mph - 0.00 in   Overcast
1:56 AM 29.1 °F 20.6 °F 20.1 °F 69% 30.10 in 10.0 mi South 9.2 mph - N/A   Overcast
2:56 AM 29.1 °F 20.0 °F 20.1 °F 69% 30.09 in 10.0 mi South 10.4 mph - N/A   Overcast
3:56 AM 29.1 °F 20.0 °F 21.0 °F 72% 30.07 in 10.0 mi South 10.4 mph - N/A   Overcast
4:56 AM 30.0 °F 21.7 °F 22.1 °F 72% 30.04 in 10.0 mi South 9.2 mph - N/A   Overcast
5:56 AM 30.0 °F 22.4 °F 22.1 °F 72% 30.03 in 10.0 mi South 8.1 mph - N/A   Overcast
6:26 AM 30.2 °F 23.4 °F 21.2 °F 69% 29.99 in 10.0 mi SSE 6.9 mph - N/A   Overcast
6:56 AM 30.0 °F 23.2 °F 22.1 °F 72% 30.03 in 10.0 mi SSE 6.9 mph - N/A   Overcast
7:56 AM 30.0 °F 24.1 °F 22.1 °F 72% 30.03 in 10.0 mi SSE 5.8 mph - N/A   Mostly Cloudy
8:56 AM 31.1 °F 25.4 °F 23.0 °F 72% 30.03 in 10.0 mi South 5.8 mph - N/A   Mostly Cloudy
9:56 AM 32.0 °F 26.4 °F 24.1 °F 73% 30.03 in 10.0 mi SSE 5.8 mph - N/A   Overcast
10:03 AM 32.0 °F 25.6 °F 24.8 °F 75% 29.99 in 10.0 mi SSE 6.9 mph - N/A   Overcast
10:18 AM 33.8 °F 25.8 °F 24.8 °F 70% 29.98 in 10.0 mi SSE 10.4 mph - N/A   Overcast
10:56 AM 34.0 °F 26.6 °F 25.2 °F 70% 30.00 in 10.0 mi SSW 9.2 mph - N/A   Overcast
11:56 AM 34.9 °F 27.1 °F 25.2 °F 68% 29.98 in 10.0 mi SSW 10.4 mph - N/A   Overcast
12:56 PM 34.9 °F 27.1 °F 25.2 °F 68% 29.95 in 10.0 mi SW 10.4 mph - 0.00 in   Overcast
1:56 PM 34.9 °F 27.1 °F 26.1 °F 70% 29.94 in 10.0 mi SW 10.4 mph - N/A   Overcast
2:56 PM 36.0 °F 30.3 °F 26.1 °F 67% 29.94 in 10.0 mi SSW 6.9 mph - N/A   Overcast
3:56 PM 34.9 °F 26.2 °F 26.1 °F 70% 29.96 in 10.0 mi SW 12.7 mph - N/A   Overcast
4:56 PM 34.9 °F 26.6 °F 27.1 °F 73% 29.97 in 6.0 mi SW 11.5 mph - 0.00 in   Overcast
5:56 PM 32.9 °F 25.3 °F 28.0 °F 82% 29.99 in 6.0 mi SW 9.2 mph - 0.00 in Snow Light Snow Showers
6:56 PM 32.9 °F 25.9 °F 29.1 °F 86% 30.01 in 6.0 mi SW 8.1 mph - 0.00 in Snow Light Snow Showers
7:56 PM 32.9 °F 27.5 °F 30.0 °F 89% 30.02 in 6.0 mi SW 5.8 mph - 0.00 in Snow Light Snow Showers
8:56 PM 32.9 °F 29.8 °F 30.0 °F 89% 30.03 in 6.0 mi WSW 3.5 mph - 0.00 in Snow Light Snow
9:56 PM 32.0 °F - 30.0 °F 92% 30.04 in 6.0 mi Calm Calm - 0.00 in Snow Light Snow
10:45 PM 33.8 °F 27.7 °F 30.2 °F 87% 30.02 in 10.0 mi West 6.9 mph - 0.00 in Rain Light Rain
10:56 PM 32.9 °F 27.5 °F 30.0 °F 89% 30.05 in 10.0 mi West 5.8 mph - 0.00 in   Overcast
11:42 PM 33.8 °F 27.7 °F 30.2 °F 87% 30.03 in 10.0 mi WNW 6.9 mph - 0.00 in   Overcast
11:56 PM 32.9 °F 27.5 °F 30.0 °F 89% 30.07 in 10.0 mi West 5.8 mph - 0.00 in   Overcast